Tracking 28514 objects as of 24-Feb-2024
HD Live streaming from Space Station
objects crossing your sky now

RADUGA 1-5

Track RADUGA 1-5 now!
RADUGA 1-5 is classified as:


NORAD ID: 26477
Int'l Code: 2000-049A
Perigee: 35,794.4 km
Apogee: 35,826.5 km
Inclination: 13.5 °
Period: 1,437.0 minutes
Semi major axis: 42181 km
RCS: 10 m2 (large)
Launch date: August 28, 2000
Source: Commonwealth of Independent States (former USSR) (CIS)
Launch site: TYURATAM MISSILE AND SPACE COMPLEX (TTMTR)

Military communication.
Your satellite tracking list
Your tracking list is empty




NASA's NSSDC Master Catalog

Two Line Element Set (TLE):
1 26477U 00049A   24054.35090271 -.00000225  00000-0  00000-0 0  9991
2 26477  13.4794  14.1430 0003806  74.8756 278.8877  1.00212110 85944
Source of the keplerian elements: AFSPC